loading
DOY 175 | 2024-06-23T12:05:17Z

ECHO 1 DEB (METAL OBJ), 53

Orbit data source: Space-Track

ECHO 1 DEB (METAL OBJ), 53 is space debris in LEO originally from a launch on Fri, 12 Aug 1960 UTC launched from the Air Force Eastern Test Range (AFETR). Debris objects in space refer to the collection of defunct objects orbiting the Earth. Examples of debris include non-operational satellites, rocket bodies, and fragments generated from explosions, collisions, or faulty payload assembly.

Loading next visibility...
Loading greatness...
ECHO 1 DEB (METAL OBJ) details
NORAD ID53
COSPAR ID
1960-009E
Orbit
LEO
Last TLE update19 hours ago
Origin
Flag of USNASA LaRC (US)
ManufacturerKaiser-Fleetwings
BusEcho Canister
MotorUnknown
Mass5 kg wet, 5 kg dry
Launch date (UTC)
1960-08-12 (64 years ago)
Launch vehicleUnknown
Launch site
Air Force Eastern Test Range (AFETR)
Object type
Payload
Rocket body
Debris
Radar Cross Section0.59 m², Medium (>0.1 m² and < 1m²)
Predictive object data (real-time)
Latitude-2.23644°
Longitude64.73234°
Altitude1,599.875 km
Speed7.073 km/s
Apparent Right ascension14h 06m 46s
Apparent Declination-22° 05' 38"
Sunlit
Object is in full shadow
Predictive observer data (real-time)
Local Sidereal Time23:13:25
Azimuth282.754° WNW
Elevation-49.308°
Doppler factor1
Orbital elements
Apogee1,684.796 km
Perigee1,525.628 km
Semi-major axis7,983.349 km
Eccentricity0.0099687
Inclination47.2783°
RAAN56.9865°
Arg. of periapsis93.5455°
True anomaly266.53336°
Mean anomaly267.6741°
Mean motion3.04274 °/min
BSTAR0.0010457
Period118.31 mins
Definitive object data (Epoch: 2024-06-22T17:22:05.262Z)
Latitude-0.00002°
Longitude-114.91835°
Altitude1,608.395 km
Speed7.065 km/s
True Right ascension03h 47m 56s
True Declination0° 00' 00"
Sunlit
Object was in daylight at TLE epoch
TLE from 19 hours ago
0 ECHO 1 DEB (METAL OBJ)
1 00053U 60009E   24174.72367202  .00000021  00000-0  10457-2 0  9992
2 00053  47.2783  56.9865 0099687  93.5455 267.6741 12.17338205847172
Epoch: 2024-06-22T17:22Z
No data available

ECHO 1 DEB (METAL OBJ) Visibility forecast

Observer location: 39.9160978°, -105.1181434, 0m alt.

ECHO 1 DEB (METAL OBJ) is not visible in the next 10 days
Span
Click to sort rows by Start time (UTC) header in descending order
Start Az.
Max El. time (UTC)
Max El. Az.
Max El.
End time (UTC)
End Az.